Soerstokken current weather conditions

sailwx.info

Wind from 330 at 12 knots

Air temperature 8.0° C
Visibility: greater than 5.4 NM
Dewpoint 7.0° C
Present weather: Light drizzle.

Last reported at 2016-Dec-05 15:20 UTC.
Time now 2016-Dec-05 16:40 UTC

Location: N 59°48' E 005°20'.
View on Google Maps.

See reports from other nearby stations

  
Tides and Currents Weather Stations Pressure Air Temp Water Temp Dewpoint Dewpoint Depression Visibility Wind Speed Wind Dir Waves Ship Positions
date/time (UTC)wind fromknots sea level pressurealtimeterstation pressurevisibilityair tempwater tempwave heightnotes
2016-Dec-05 15:20 330 12 5.4 8.0 Light drizzle.
2016-Dec-05 14:50 290 9 2.7 8.0 Light rain. Mist.
2016-Dec-05 14:20 280 12 1.1 8.0 Rain. Mist.
2016-Dec-05 13:50 280 8 2.2 7.0 Light rain. Mist.
2016-Dec-05 11:50 280 8 5.4 7.0
2016-Dec-05 11:20 290 9 5.4 7.0
2016-Dec-05 10:50 290 8 5.4 7.0
2016-Dec-05 10:20 290 6 5.4 7.0 Rain showers.
2016-Dec-05 09:50 290 6 5.4 6.0
2016-Dec-05 09:20 290 7 5.4 6.0
2016-Dec-05 08:50 280 6 5.4 6.0
2016-Dec-05 08:20 290 6 5.4 6.0
2016-Dec-05 07:50 320 7 5.4 7.0
2016-Dec-05 07:20 290 9 5.4 7.0
2016-Dec-05 06:50 280 9 5.4 7.0
2016-Dec-05 06:20 280 6 5.4 7.0
2016-Dec-05 05:50 280 5 5.4 6.0
2016-Dec-05 05:20 280 6 5.4 6.0
2016-Dec-05 04:50 270 6 5.4 6.0 Rain showers.
2016-Dec-05 04:20 350 2 5.4 6.0
2016-Dec-05 03:50 290 2 5.4 6.0
2016-Dec-04 18:20 280 6 4.3 7.0 Light rain drizzle.
2016-Dec-04 17:50 270 5 5.4 7.0
2016-Dec-04 17:20 280 5 5.4 7.0
2016-Dec-04 16:50 5.4 7.0
2016-Dec-04 16:20 290 2 5.4 7.0
2016-Dec-04 15:50 290 4 5.4 7.0
2016-Dec-04 15:20 290 4 5.4 7.0
2016-Dec-04 14:50 290 2 5.4 7.0
2016-Dec-04 14:20 280 2 5.4 8.0
2016-Dec-04 13:50 280 2 5.4 8.0
2016-Dec-04 13:20 280 5 5.4 8.0
2016-Dec-04 12:50 280 6 5.4 8.0
2016-Dec-04 12:20 280 5 5.4 8.0
2016-Dec-04 11:50 270 6 5.4 8.0